Location: Bernay
(48.6766°N, 2.9386°E)
Time: 00:38:03
(UTC+00:00)

SJ 16-02 - Pass Details

Date: 23 April 2026
Orbit: 582 x 592 km, 75.0° (Epoch: 19 May)

Event Time Altitude Azimuth Distance (km) Brightness Sun altitude
Rises 23:20:22 0° 320° (NW) 2,820 5.6 -28.3°
Reaches altitude 10° 23:23:49 10° 290° (WNW) 1,910 4.1 -28.3°
Enters shadow 23:24:35 12° 280° (W) 1,809 3.9 -28.3°
